ANZ023M NZAA-NZNR

Flight info

Callsign ANZ023M
Flight time 0h 51m
Altitude 16000
Route ORIDI H211 HN Y550 GENDA H211 NR
Aircraft AT76/M-SDFGIRY/S

Departure

Time 2026-04-23 23:09
Airport Auckland International Airport (NZAA)

Arrival

Time 2026-04-24 00:00
Airport Hawke's Bay Airport (NZNR)
Time Latitude Longitude Altitude Speed Heading
2026-04-23 22:54 -37.00613 174.79395 19 ft 0 kts 248°
2026-04-23 23:05 -37.00641 174.79390 22 ft 9 kts 174°
2026-04-23 23:05 -37.00668 174.79421 23 ft 4 kts 114°
2026-04-23 23:06 -37.00675 174.79445 22 ft 2 kts 106°
2026-04-23 23:06 -37.00679 174.79468 22 ft 7 kts 101°
2026-04-23 23:06 -37.00675 174.79521 24 ft 7 kts 76°
2026-04-23 23:06 -37.00659 174.79585 23 ft 9 kts 71°
2026-04-23 23:07 -37.00648 174.79662 22 ft 9 kts 108°
2026-04-23 23:07 -37.00687 174.79701 22 ft 10 kts 162°
2026-04-23 23:07 -37.00794 174.79757 24 ft 19 kts 163°
2026-04-23 23:07 -37.00882 174.79770 22 ft 7 kts 211°
2026-04-23 23:08 -37.00919 174.79661 22 ft 36 kts 250°
2026-04-23 23:08 -37.01060 174.79153 22 ft 86 kts 251°
2026-04-23 23:08 -37.01300 174.78271 26 ft 127 kts 248°
2026-04-23 23:08 -37.01592 174.77187 413 ft 139 kts 250°
2026-04-23 23:09 -37.01925 174.75966 865 ft 155 kts 248°
2026-04-23 23:09 -37.02325 174.74632 1350 ft 173 kts 249°
2026-04-23 23:09 -37.02756 174.73147 1786 ft 188 kts 250°
2026-04-23 23:09 -37.03188 174.71540 2230 ft 200 kts 252°
2026-04-23 23:10 -37.03631 174.69850 2673 ft 208 kts 252°
2026-04-23 23:10 -37.04102 174.68109 3186 ft 212 kts 251°
2026-04-23 23:10 -37.04588 174.66357 3706 ft 213 kts 245°
2026-04-23 23:10 -37.05443 174.64926 4253 ft 204 kts 208°
2026-04-23 23:11 -37.06696 174.64123 4758 ft 204 kts 200°
2026-04-23 23:11 -37.08030 174.63508 5272 ft 205 kts 193°
2026-04-23 23:11 -37.09407 174.63029 5787 ft 207 kts 191°
2026-04-23 23:11 -37.10813 174.62593 6297 ft 209 kts 190°
2026-04-23 23:12 -37.12237 174.62154 6822 ft 213 kts 190°
2026-04-23 23:12 -37.13677 174.61697 7310 ft 215 kts 192°
2026-04-23 23:12 -37.15131 174.61212 7809 ft 217 kts 192°
2026-04-23 23:12 -37.16599 174.60705 8318 ft 219 kts 193°
2026-04-23 23:13 -37.18076 174.60193 8831 ft 221 kts 193°
2026-04-23 23:13 -37.19563 174.59682 9357 ft 222 kts 193°
2026-04-23 23:13 -37.21060 174.59173 9892 ft 223 kts 193°
2026-04-23 23:13 -37.22577 174.59189 10426 ft 220 kts 157°
2026-04-23 23:14 -37.23829 174.60239 10921 ft 217 kts 137°
2026-04-23 23:14 -37.24868 174.61619 11417 ft 218 kts 127°
2026-04-23 23:14 -37.25724 174.63195 11925 ft 219 kts 119°
2026-04-23 23:14 -37.26453 174.64877 12440 ft 220 kts 116°
2026-04-23 23:15 -37.27146 174.66595 12968 ft 222 kts 116°
2026-04-23 23:15 -37.27843 174.68327 13486 ft 223 kts 116°
2026-04-23 23:15 -37.28562 174.70051 14030 ft 223 kts 117°
2026-04-23 23:15 -37.29299 174.71769 14517 ft 223 kts 117°
2026-04-23 23:16 -37.30037 174.73480 15008 ft 223 kts 117°
2026-04-23 23:16 -37.30775 174.75192 15504 ft 223 kts 118°
2026-04-23 23:16 -37.31513 174.76904 16011 ft 222 kts 118°
2026-04-23 23:16 -37.32246 174.78603 16524 ft 221 kts 118°
2026-04-23 23:17 -37.32976 174.80298 16917 ft 227 kts 118°
2026-04-23 23:17 -37.33767 174.82125 16973 ft 247 kts 118°
2026-04-23 23:17 -37.34620 174.84091 16995 ft 265 kts 118°
2026-04-23 23:17 -37.35624 174.86092 17010 ft 277 kts 134°
2026-04-23 23:18 -37.36586 174.87174 17020 ft 285 kts 141°
2026-04-23 23:18 -37.38702 174.89341 17019 ft 300 kts 139°
2026-04-23 23:18 -37.39735 174.90519 17015 ft 305 kts 136°
2026-04-23 23:18 -37.41744 174.93104 17016 ft 313 kts 133°
2026-04-23 23:19 -37.42736 174.94430 17021 ft 315 kts 133°
2026-04-23 23:19 -37.44238 174.96420 17015 ft 311 kts 134°
2026-04-23 23:19 -37.45742 174.98351 17012 ft 308 kts 134°
2026-04-23 23:19 -37.47238 175.00262 17018 ft 305 kts 134°
2026-04-23 23:20 -37.48724 175.02162 17012 ft 304 kts 134°
2026-04-23 23:20 -37.50200 175.04047 17016 ft 302 kts 134°
2026-04-23 23:20 -37.51673 175.05931 17019 ft 301 kts 134°
2026-04-23 23:20 -37.53142 175.07806 17009 ft 300 kts 134°
2026-04-23 23:21 -37.54600 175.09670 17012 ft 298 kts 134°
2026-04-23 23:21 -37.56050 175.11523 17024 ft 297 kts 134°
2026-04-23 23:21 -37.57499 175.13377 17015 ft 296 kts 134°
2026-04-23 23:21 -37.58939 175.15222 17022 ft 295 kts 134°
2026-04-23 23:22 -37.60387 175.17059 17019 ft 296 kts 135°
2026-04-23 23:22 -37.61843 175.18899 17028 ft 296 kts 135°
2026-04-23 23:22 -37.63413 175.20546 17023 ft 295 kts 149°
2026-04-23 23:22 -37.65247 175.21710 17016 ft 296 kts 156°
2026-04-23 23:23 -37.67129 175.22756 17021 ft 296 kts 156°
2026-04-23 23:23 -37.69010 175.23822 17015 ft 296 kts 155°
2026-04-23 23:23 -37.70859 175.24958 17020 ft 295 kts 153°
2026-04-23 23:23 -37.72693 175.26126 17022 ft 295 kts 154°
2026-04-23 23:24 -37.74530 175.27277 17024 ft 295 kts 154°
2026-04-23 23:24 -37.76369 175.28428 17027 ft 295 kts 154°
2026-04-23 23:24 -37.78178 175.29575 17022 ft 295 kts 153°
2026-04-23 23:24 -37.80011 175.30729 17026 ft 294 kts 154°
2026-04-23 23:25 -37.81844 175.31876 17028 ft 294 kts 153°
2026-04-23 23:25 -37.83677 175.33029 17025 ft 294 kts 153°
2026-04-23 23:25 -37.85516 175.34166 17016 ft 294 kts 154°
2026-04-23 23:25 -37.87369 175.35254 17030 ft 294 kts 155°
2026-04-23 23:26 -37.89243 175.36296 17034 ft 294 kts 156°
2026-04-23 23:26 -37.91112 175.37330 17030 ft 294 kts 156°
2026-04-23 23:26 -37.92982 175.38374 17021 ft 293 kts 156°
2026-04-23 23:26 -37.94850 175.39416 17023 ft 294 kts 156°
2026-04-23 23:27 -37.96722 175.40459 17024 ft 293 kts 156°
2026-04-23 23:27 -37.98591 175.41501 17029 ft 293 kts 156°
2026-04-23 23:27 -38.00452 175.42539 17029 ft 293 kts 155°
2026-04-23 23:27 -38.02317 175.43579 17028 ft 292 kts 155°
2026-04-23 23:28 -38.04174 175.44618 17033 ft 292 kts 155°
2026-04-23 23:28 -38.06035 175.45658 17032 ft 292 kts 155°
2026-04-23 23:28 -38.07897 175.46699 17026 ft 292 kts 155°
2026-04-23 23:28 -38.09758 175.47738 17033 ft 292 kts 155°
2026-04-23 23:29 -38.11616 175.48777 17036 ft 292 kts 155°
2026-04-23 23:29 -38.13477 175.49821 17019 ft 292 kts 155°
2026-04-23 23:29 -38.15338 175.50864 17014 ft 292 kts 155°
2026-04-23 23:29 -38.17196 175.51904 17034 ft 292 kts 155°
2026-04-23 23:30 -38.19050 175.52947 17032 ft 292 kts 155°
2026-04-23 23:30 -38.20910 175.53990 17031 ft 292 kts 155°
2026-04-23 23:30 -38.22766 175.55033 17026 ft 292 kts 155°
2026-04-23 23:30 -38.24623 175.56080 17025 ft 292 kts 155°
2026-04-23 23:31 -38.26455 175.57106 17031 ft 292 kts 155°
2026-04-23 23:31 -38.28308 175.58150 17014 ft 291 kts 155°
2026-04-23 23:31 -38.30163 175.59192 17033 ft 291 kts 155°
2026-04-23 23:31 -38.32018 175.60239 17034 ft 292 kts 155°
2026-04-23 23:32 -38.33871 175.61282 17025 ft 292 kts 155°
2026-04-23 23:32 -38.35729 175.62330 17023 ft 291 kts 155°
2026-04-23 23:32 -38.37580 175.63370 17023 ft 291 kts 155°
2026-04-23 23:32 -38.39428 175.64412 17023 ft 290 kts 155°
2026-04-23 23:33 -38.41272 175.65456 17034 ft 290 kts 155°
2026-04-23 23:33 -38.43117 175.66498 17028 ft 290 kts 155°
2026-04-23 23:33 -38.44961 175.67539 17024 ft 290 kts 155°
2026-04-23 23:33 -38.46801 175.68575 17026 ft 289 kts 155°
2026-04-23 23:34 -38.48639 175.69617 17028 ft 289 kts 154°
2026-04-23 23:34 -38.50476 175.70664 17029 ft 289 kts 155°
2026-04-23 23:34 -38.52311 175.71702 17025 ft 289 kts 154°
2026-04-23 23:34 -38.54146 175.72739 17029 ft 288 kts 154°
2026-04-23 23:35 -38.55978 175.73783 17030 ft 288 kts 154°
2026-04-23 23:35 -38.57810 175.74821 17033 ft 288 kts 154°
2026-04-23 23:35 -38.59639 175.75857 17028 ft 288 kts 154°
2026-04-23 23:35 -38.61469 175.76900 17034 ft 288 kts 154°
2026-04-23 23:36 -38.63300 175.77941 17036 ft 288 kts 155°
2026-04-23 23:36 -38.65131 175.78984 17034 ft 288 kts 155°
2026-04-23 23:36 -38.66960 175.80025 17035 ft 288 kts 155°
2026-04-23 23:36 -38.68795 175.81068 17023 ft 289 kts 155°
2026-04-23 23:37 -38.70629 175.82114 17023 ft 288 kts 155°
2026-04-23 23:37 -38.72459 175.83156 17025 ft 287 kts 155°
2026-04-23 23:37 -38.74280 175.84196 17026 ft 287 kts 155°
2026-04-23 23:37 -38.76103 175.85236 17025 ft 286 kts 155°
2026-04-23 23:38 -38.77922 175.86275 17030 ft 286 kts 155°
2026-04-23 23:38 -38.79739 175.87315 17026 ft 286 kts 155°
2026-04-23 23:38 -38.81556 175.88350 17022 ft 286 kts 155°
2026-04-23 23:38 -38.83341 175.89382 17023 ft 284 kts 153°
2026-04-23 23:39 -38.84893 175.90877 17026 ft 279 kts 130°
2026-04-23 23:39 -38.86044 175.92873 17027 ft 278 kts 121°
2026-04-23 23:39 -38.87052 175.94991 17021 ft 278 kts 120°
2026-04-23 23:39 -38.88047 175.97122 17022 ft 279 kts 120°
2026-04-23 23:40 -38.89080 175.99230 17023 ft 279 kts 121°
2026-04-23 23:40 -38.90150 176.01310 17026 ft 280 kts 122°
2026-04-23 23:40 -38.91228 176.03394 17025 ft 280 kts 122°
2026-04-23 23:40 -38.92300 176.05485 17034 ft 280 kts 122°
2026-04-23 23:41 -38.93367 176.07581 17026 ft 282 kts 122°
2026-04-23 23:41 -38.94439 176.09691 17025 ft 282 kts 122°
2026-04-23 23:41 -38.95514 176.11797 17018 ft 282 kts 122°
2026-04-23 23:41 -38.96588 176.13908 17019 ft 282 kts 122°
2026-04-23 23:42 -38.97663 176.16017 17022 ft 282 kts 122°
2026-04-23 23:42 -38.98735 176.18122 17025 ft 282 kts 122°
2026-04-23 23:42 -38.99799 176.20228 16961 ft 279 kts 122°
2026-04-23 23:42 -39.00861 176.22311 16993 ft 278 kts 122°
2026-04-23 23:43 -39.01914 176.24386 17007 ft 277 kts 122°
2026-04-23 23:43 -39.02968 176.26465 17018 ft 277 kts 122°
2026-04-23 23:43 -39.04022 176.28544 17031 ft 278 kts 123°
2026-04-23 23:43 -39.05077 176.30615 17021 ft 279 kts 123°
2026-04-23 23:44 -39.06134 176.32706 17026 ft 279 kts 122°
2026-04-23 23:44 -39.07190 176.34806 17025 ft 279 kts 122°
2026-04-23 23:44 -39.08241 176.36900 17027 ft 279 kts 123°
2026-04-23 23:44 -39.09309 176.38986 17031 ft 279 kts 123°
2026-04-23 23:45 -39.10366 176.41085 17033 ft 279 kts 123°
2026-04-23 23:45 -39.11425 176.43185 17033 ft 279 kts 123°
2026-04-23 23:45 -39.12482 176.45282 17047 ft 280 kts 123°
2026-04-23 23:45 -39.13543 176.47388 17036 ft 280 kts 123°
2026-04-23 23:46 -39.14603 176.49491 17035 ft 280 kts 123°
2026-04-23 23:46 -39.15622 176.51505 17034 ft 251 kts 123°
2026-04-23 23:46 -39.16428 176.53104 16969 ft 224 kts 123°
2026-04-23 23:46 -39.17263 176.54780 16437 ft 220 kts 122°
2026-04-23 23:47 -39.18088 176.56421 15936 ft 216 kts 122°
2026-04-23 23:47 -39.18889 176.58047 15464 ft 214 kts 122°
2026-04-23 23:47 -39.19703 176.59620 14966 ft 207 kts 133°
2026-04-23 23:47 -39.20949 176.60460 14517 ft 206 kts 174°
2026-04-23 23:48 -39.22346 176.60449 14002 ft 203 kts 180°
2026-04-23 23:48 -39.23762 176.60505 13462 ft 203 kts 175°
2026-04-23 23:48 -39.25161 176.60729 12932 ft 202 kts 169°
2026-04-23 23:48 -39.26527 176.61123 12432 ft 201 kts 164°
2026-04-23 23:49 -39.29172 176.62271 11440 ft 200 kts 160°
2026-04-23 23:49 -39.30472 176.62900 10948 ft 199 kts 160°
2026-04-23 23:49 -39.31763 176.63525 10478 ft 197 kts 160°
2026-04-23 23:50 -39.33052 176.64126 9970 ft 197 kts 161°
2026-04-23 23:50 -39.34341 176.64712 9427 ft 196 kts 161°
2026-04-23 23:50 -39.35621 176.65292 8924 ft 195 kts 161°
2026-04-23 23:50 -39.36894 176.65871 8453 ft 193 kts 160°
2026-04-23 23:51 -39.38144 176.66439 8053 ft 188 kts 161°
2026-04-23 23:51 -39.39371 176.66997 7667 ft 186 kts 161°
2026-04-23 23:51 -39.40585 176.67549 7247 ft 184 kts 161°
2026-04-23 23:51 -39.41784 176.68096 6830 ft 182 kts 161°
2026-04-23 23:52 -39.42974 176.68636 6397 ft 181 kts 160°
2026-04-23 23:52 -39.44161 176.69176 5964 ft 180 kts 160°
2026-04-23 23:52 -39.45343 176.69712 5542 ft 180 kts 160°
2026-04-23 23:52 -39.46522 176.70251 5121 ft 180 kts 160°
2026-04-23 23:53 -39.47704 176.70793 4663 ft 180 kts 160°
2026-04-23 23:53 -39.48884 176.71331 4222 ft 180 kts 160°
2026-04-23 23:53 -39.50062 176.71872 3824 ft 180 kts 160°
2026-04-23 23:53 -39.51251 176.72412 3396 ft 181 kts 160°
2026-04-23 23:54 -39.52413 176.72939 3131 ft 173 kts 160°
2026-04-23 23:54 -39.53528 176.73449 2859 ft 167 kts 160°
2026-04-23 23:54 -39.54621 176.73947 2644 ft 165 kts 160°
2026-04-23 23:54 -39.55694 176.74440 2450 ft 162 kts 160°
2026-04-23 23:55 -39.56745 176.74918 2318 ft 157 kts 160°
2026-04-23 23:55 -39.57759 176.75385 2211 ft 152 kts 160°
2026-04-23 23:55 -39.58762 176.75853 2069 ft 155 kts 160°
2026-04-23 23:55 -39.59776 176.76326 1934 ft 155 kts 158°
2026-04-23 23:56 -39.60508 176.77250 1804 ft 150 kts 105°
2026-04-23 23:56 -39.60685 176.78600 1684 ft 162 kts 97°
2026-04-23 23:56 -39.60807 176.80146 1554 ft 177 kts 95°
2026-04-23 23:56 -39.60897 176.81785 1446 ft 187 kts 94°
2026-04-23 23:57 -39.60835 176.83473 1336 ft 191 kts 69°
2026-04-23 23:57 -39.59969 176.84738 1242 ft 196 kts 27°
2026-04-23 23:57 -39.58682 176.85334 1137 ft 199 kts 14°
2026-04-23 23:57 -39.57324 176.85671 1038 ft 194 kts
2026-04-23 23:58 -39.56026 176.85838 952 ft 183 kts
2026-04-23 23:58 -39.54791 176.85963 851 ft 171 kts
2026-04-23 23:58 -39.53677 176.86082 840 ft 152 kts
2026-04-23 23:58 -39.52644 176.86155 756 ft 143 kts
2026-04-23 23:59 -39.51745 176.86213 786 ft 122 kts
2026-04-23 23:59 -39.50907 176.86277 669 ft 119 kts
2026-04-23 23:59 -39.50088 176.86365 548 ft 117 kts
2026-04-23 23:59 -39.49288 176.86457 418 ft 116 kts
2026-04-24 00:00 -39.48469 176.86548 234 ft 122 kts
2026-04-24 00:00 -39.47617 176.86644 47 ft 121 kts
2026-04-24 00:00 -39.46866 176.86731 30 ft 97 kts
2026-04-24 00:00 -39.46532 176.86770 29 ft 24 kts
2026-04-24 00:01 -39.46438 176.86887 29 ft 25 kts 93°
2026-04-24 00:01 -39.46439 176.87074 29 ft 14 kts 90°
2026-04-24 00:01 -39.46477 176.87126 30 ft 12 kts 184°
2026-04-24 00:01 -39.46539 176.87127 30 ft 9 kts 178°
2026-04-24 00:02 -39.46561 176.87169 30 ft 6 kts 68°
2026-04-24 00:02 -39.46558 176.87215 30 ft 1 kts 127°
2026-04-24 00:02 -39.46564 176.87215 31 ft 0 kts 186°
2026-04-24 00:02 -39.46570 176.87211 30 ft 0 kts 203°
2026-04-24 00:03 -39.46576 176.87207 31 ft 0 kts 202°